Total_Precipitation_Accumulation
8.36 7.58 5.71 5.02 3.66 2.81 3.97 5.42 6.09 5.61 3.91 3.42 3.40 2.79 2.40 2.14 1.84 1.61 2.07 2.37 1.57 1.32 0.78 0.49 0.41 0.42 0.30 0.36 0.17 0.07 0.13 0.35
7.64 8.95 8.46 3.91 2.83 2.28 2.98 4.40 5.95 6.81 5.91 4.75 3.30 2.19 2.34 3.02 2.94 2.38 2.06 2.11 1.94 1.78 1.57 1.36 0.92 0.80 0.62 0.44 0.37 0.40 0.36 0.36
4.90 7.55 6.17 3.45 1.95 1.51 1.83 3.59 3.58 3.14 3.16 4.04 3.10 2.18 1.72 1.33 1.83 1.79 1.58 1.51 1.72 1.87 1.70 1.74 1.64 1.08 1.04 0.82 0.81 0.61 0.61 0.44
1.92 3.62 4.21 2.94 1.75 1.43 1.15 1.82 2.76 3.18 1.84 1.94 1.91 1.90 1.65 1.06 1.07 1.03 1.32 1.06 1.12 1.82 1.58 1.27 1.31 0.87 0.97 0.80 0.66 0.60 0.68 0.49
0.98 1.53 1.82 2.29 1.83 1.50 1.38 1.32 1.42 3.06 2.08 1.08 1.18 1.38 1.21 1.00 0.75 0.82 0.94 0.94 0.58 0.77 1.21 0.87 0.77 0.67 0.99 0.83 0.47 0.38 0.43 0.38
0.65 0.71 0.75 1.00 1.35 1.28 0.96 1.07 1.14 1.48 2.01 1.23 0.98 1.21 0.73 0.78 0.54 0.63 0.77 0.90 0.74 0.77 0.65 0.79 0.69 0.75 0.84 0.87 0.57 0.35 0.29 0.37
0.37 0.45 0.44 0.65 0.92 1.17 1.14 0.84 0.98 1.04 1.50 1.22 0.78 0.76 0.62 0.69 0.49 0.48 0.66 0.72 0.90 0.96 0.84 0.83 0.96 0.85 0.82 0.85 0.69 0.48 0.60 0.64
0.29 0.35 0.34 0.50 0.82 1.01 1.25 1.27 1.14 1.08 1.06 0.92 0.58 0.53 0.48 0.41 0.38 0.41 0.38 0.53 0.96 1.03 1.00 1.08 1.11 1.12 1.23 1.17 1.17 1.13 1.01 1.03
0.29 0.34 0.52 0.52 0.52 0.62 1.00 1.14 1.07 0.97 0.94 1.12 1.00 0.79 0.51 0.37 0.31 0.30 0.35 0.49 0.91 1.00 1.34 1.57 1.40 1.13 1.17 1.21 1.17 1.20 1.43 1.66
0.20 0.23 0.68 0.62 0.50 0.47 0.65 0.96 1.02 0.91 0.81 0.99 0.98 0.84 0.79 0.86 0.66 0.50 0.43 0.80 1.05 0.85 0.89 1.38 1.27 0.97 0.89 1.22 1.39 1.60 1.66 1.94
0.53 0.34 0.43 0.65 0.72 0.54 0.53 0.72 0.83 0.70 0.53 0.85 1.14 1.02 0.81 0.80 0.84 0.90 0.98 1.21 1.22 1.18 1.13 1.07 1.09 0.83 0.75 1.01 1.32 1.71 1.95 1.99
0.35 0.47 0.46 0.57 0.62 0.58 0.63 0.62 0.78 0.55 0.41 0.78 0.84 1.38 1.12 0.59 0.50 0.59 0.99 1.21 1.42 1.63 1.55 1.26 1.29 1.20 1.22 1.17 1.12 1.29 1.47 1.68
0.10 0.27 0.28 0.44 0.41 0.29 0.36 0.36 0.57 0.42 0.45 0.54 0.95 1.17 1.89 1.04 0.56 0.32 0.43 0.50 0.61 1.05 1.50 1.44 1.51 1.84 2.51 2.43 1.86 1.70 2.06 2.41
0.02 0.04 0.13 0.21 0.26 0.29 0.18 0.23 0.33 0.51 0.56 0.65 0.72 0.83 1.21 1.45 0.85 0.61 0.43 0.52 0.58 0.72 1.10 1.21 1.24 1.37 1.64 1.67 1.71 1.35 1.06 0.86
0.02 0.03 0.06 0.08 0.16 0.28 0.25 0.37 0.40 0.61 0.73 0.88 0.67 0.72 0.98 1.17 1.05 0.91 0.85 1.18 1.22 1.24 1.46 1.49 1.31 1.29 1.19 1.41 1.18 1.00 0.92 0.95
0.06 0.06 0.06 0.04 0.06 0.10 0.09 0.15 0.13 0.15 0.18 0.47 0.75 0.81 1.21 1.50 1.15 1.08 0.87 0.81 0.97 0.99 1.12 1.31 1.48 1.53 1.55 1.66 1.35 1.15 0.95 0.82
0.05 0.11 0.13 0.08 0.10 0.08 0.10 0.11 0.14 0.14 0.09 0.13 0.42 0.70 0.60 1.16 1.33 1.29 1.07 0.91 0.80 0.83 0.71 0.69 0.60 0.78 0.55 0.47 0.59 0.51 0.51 0.61
0.06 0.09 0.11 0.15 0.16 0.18 0.14 0.16 0.16 0.12 0.09 0.12 0.20 0.42 0.86 1.03 1.31 1.12 1.20 1.15 1.11 1.31 1.38 1.06 0.78 0.65 0.71 0.44 0.41 0.40 0.31 0.39
0.24 0.25 0.24 0.18 0.14 0.15 0.19 0.20 0.18 0.18 0.19 0.29 0.39 0.50 0.83 1.01 1.26 1.22 1.12 1.23 1.14 1.16 1.39 1.61 1.57 1.08 0.93 0.81 0.65 0.48 0.44 0.50
0.31 0.49 0.53 0.48 0.40 0.36 0.39 0.42 0.41 0.41 0.46 0.65 0.64 0.47 0.46 0.88 1.36 1.51 1.27 1.28 1.36 1.38 1.48 1.49 1.80 1.86 1.23 0.96 0.73 0.61 0.64 0.61